User: anonymous   Login
Location: Laverne
(36.7100°N, 99.8930°W)
Time: 20:08:55
(UTC-06:00)
Language:

Iridium 32 - Orbit

View from above orbital plane
View from above orbital plane
View from above satellite
View from above satellite

Ground track
Ground track

The orbit data is extracted from the following two-line orbital elements,

1 24945U 97051B   14355.41583555  .00000944  00000-0  32986-3 0  1350
2 24945 086.3973 306.9645 0002250 101.8880 258.2568 14.34218586904168
Epoch (UTC): 21 December 2014 09:58:48
Eccentricity: 0.0002250
inclination: 86.3973°
perigee height: 776 km
apogee height: 779 km
right ascension of ascending node: 306.9645°
argument of perigee: 101.8880°
revolutions per day: 14.34218586
mean anomaly at epoch: 258.2568°
orbit number at epoch: 90416

The dashed part of the orbit path shows where the satellite is in the earth's shadow,  

DLR